[[{"header":{"parameterUnit":"m.s-1","parameterCategory":1,"la1":30.2992,"la2":30.254,"lo1":-89.0895,"lo2":-89.0443,"dy":0.0025,"dx":0.0025,"nx":19,"ny":19,"refTime":"2026-05-18T09:00:00:Z","depth":0,"parameterNumber":2,"parameterNumberName":"U-component_of_WINDS"},"data":[0,0,0,-4.2155,-4.2156,-4.219,-4.219,-4.2257,-4.2258,0,0,0,0,0,0,0,0,0,0,0,-4.2159,-4.216,-4.2154,-4.2156,-4.219,-4.219,-4.2257,-4.2258,0,0,0,0,0,0,0,0,0,0,0,-4.2158,-4.216,-4.2161,-4.2156,-4.219,-4.219,-4.2257,-4.2223,0,0,0,0,0,0,0,0,0,0,-4.2185,-4.2204,-4.2159,-4.2161,-4.2156,-4.219,-4.219,-4.2221,-4.2225,-4.2252,0,-4.228,0,-4.227,-4.2264,-4.2264,0,0,0,-4.2145,-4.22,-4.2196,-4.2161,-4.2157,-4.219,-4.2171,-4.2223,-4.2227,-4.2258,-4.2281,-4.2283,-4.2272,-4.2265,-4.2265,-4.2458,-4.2459,0,0,-4.2143,-4.2173,-4.2193,-4.22,-4.2197,-4.217,-4.2173,-4.2225,-4.2252,-4.2281,-4.2284,-4.2273,-4.2265,-4.2266,-4.2457,-4.2458,0,0,0,-4.2145,-4.2172,-4.2166,-4.2198,-4.2203,-4.2172,-4.2174,-4.225,-4.2246,-4.2284,-4.2273,-4.2266,-4.2267,-4.2455,-4.2457,-4.2555,0,0,0,-4.2143,-4.2173,-4.2166,-4.2185,-4.2202,-4.2227,-4.2199,-4.2242,-4.2247,-4.2273,-4.2266,-4.2268,-4.2453,-4.2456,-4.2549,-4.2596,0,0,0,-4.2152,-4.2174,-4.2184,-4.2186,-4.2202,-4.2225,-4.2224,-4.2242,-4.2241,-4.2265,-4.2268,-4.2452,-4.2456,-4.2544,-4.2587,-4.2655,0,0,0,-4.2169,-4.2271,-4.2186,-4.2295,-4.2202,-4.2286,-4.2223,-4.2284,-4.2316,-4.2266,-4.2454,-4.2457,-4.2542,-4.2582,-4.2649,-4.2716,-4.2747,0,0,-4.2314,-4.229,-4.2351,-4.2276,-4.2383,-4.2279,-4.2399,-4.24,-4.2376,-4.2432,-4.2436,-4.2551,-4.2587,-4.2654,-4.2913,-4.2938,0,0,0,-4.2407,-4.2452,-4.2474,-4.2506,-4.2509,-4.2516,-4.2495,-4.2495,-4.2542,-4.2411,-4.2594,-4.2614,-4.2652,-4.2682,-4.2704,-4.2734,-4.2473,-4.2472,-4.2472,-4.2655,-4.2617,-4.2717,-4.2684,-4.2716,-4.2693,-4.2715,-4.2712,-4.2665,-4.2709,-4.2725,-4.2887,-4.2924,-4.294,-4.2972,-4.2758,-4.2759,-4.2759,-4.2759,-4.2862,-4.2919,-4.2855,-4.2928,-4.2888,-4.2948,-4.2931,-4.2896,-4.2946,-4.2872,-4.2903,-4.2824,-4.2968,-4.2994,-4.2766,-4.2765,-4.2764,-4.2763,-4.2763,-4.3019,-4.304,-4.3039,-4.308,-4.3117,-4.308,-4.3131,-4.3093,-4.3057,-4.3089,-4.3101,-4.3099,-4.3091,-4.3098,-4.3098,-4.3099,-4.3099,-4.31,-4.31,-4.3182,-4.3177,-4.3225,-4.3237,-4.3252,-4.3267,-4.3246,-4.326,-4.3265,-4.3233,-4.3233,-4.3182,-4.299,-4.2941,-4.3109,-4.3107,-4.3106,-4.3105,-4.3104,-4.3404,-4.3347,-4.3422,-4.3437,-4.3447,-4.3486,-4.3437,-4.3468,-4.3474,-4.35,-4.3442,-4.3307,-4.3279,-4.3262,-4.3221,-4.3451,-4.3451,-4.3451,-4.3451,-4.3535,-4.3517,-4.3584,-4.3611,-4.3632,-4.3595,-4.368,-4.3665,-4.364,-4.3641,-4.3603,-4.3547,-4.3531,-4.3512,-4.3489,-4.3451,-4.3734,-4.3734,-4.3734,-4.3669,-4.3652,-4.3731,-4.3706,-4.3711,-4.3717,-4.3795,-4.3828,-4.3788,-4.3745,-4.3641,-4.3629,-4.3538,-4.3511,-4.3464,-4.343,-4.3358,0,0]},{"header":{"parameterUnit":"m.s-1","parameterCategory":1,"la1":30.2992,"la2":30.254,"lo1":-89.0895,"lo2":-89.0443,"dy":0.0025,"dx":0.0025,"nx":19,"ny":19,"refTime":"2026-05-18T09:00:00:Z","depth":0,"parameterNumber":3,"parameterNumberName":"V-component_of_WINDS"},"data":[0,0,0,2.0475,2.0475,2.0476,2.0476,2.0488,2.0488,0,0,0,0,0,0,0,0,0,0,0,2.0481,2.0482,2.0475,2.0475,2.0476,2.0476,2.0488,2.0488,0,0,0,0,0,0,0,0,0,0,0,2.0481,2.0482,2.0482,2.0475,2.0476,2.0476,2.0488,2.0483,0,0,0,0,0,0,0,0,0,0,2.048,2.0493,2.0481,2.0482,2.0475,2.0476,2.0476,2.0483,2.0484,2.0493,0,2.0503,0,2.0496,2.049,2.049,0,0,0,2.0469,2.0493,2.0487,2.0482,2.0475,2.0476,2.0474,2.0483,2.0484,2.0494,2.0503,2.0503,2.0496,2.049,2.049,2.0563,2.0563,0,0,2.0469,2.0485,2.0486,2.0488,2.0489,2.0474,2.0474,2.0483,2.0494,2.0503,2.0503,2.0496,2.049,2.049,2.0562,2.0563,0,0,0,2.0473,2.0485,2.0479,2.0488,2.0487,2.0474,2.0474,2.0494,2.049,2.0503,2.0496,2.049,2.0491,2.0562,2.0563,2.0608,0,0,0,2.0473,2.0487,2.0479,2.0489,2.0487,2.049,2.0484,2.049,2.049,2.0496,2.049,2.0491,2.0561,2.0562,2.0605,2.0627,0,0,0,2.0479,2.0488,2.049,2.0489,2.049,2.049,2.0487,2.0489,2.0487,2.049,2.0491,2.056,2.0562,2.0603,2.0623,2.0652,0,0,0,2.049,2.0529,2.0491,2.0533,2.0491,2.0518,2.0487,2.0506,2.0514,2.049,2.0561,2.0562,2.0602,2.062,2.0649,2.0679,2.0693,0,0,2.0548,2.0537,2.056,2.0526,2.0565,2.0517,2.0562,2.0554,2.0539,2.0556,2.0557,2.0606,2.0622,2.0651,2.0764,2.0775,0,0,0,2.0584,2.0601,2.0608,2.0618,2.0614,2.0612,2.0596,2.0594,2.0608,2.0551,2.0624,2.0633,2.0649,2.0663,2.0672,2.0685,2.0569,2.0569,2.0569,2.0688,2.067,2.0708,2.069,2.0699,2.0684,2.069,2.0684,2.066,2.0678,2.0683,2.0754,2.077,2.0777,2.0791,2.0696,2.0697,2.0697,2.0697,2.0773,2.0795,2.0765,2.0792,2.0772,2.0794,2.0781,2.0764,2.0782,2.0748,2.0761,2.0726,2.079,2.0802,2.07,2.07,2.0699,2.0699,2.0699,2.084,2.0847,2.0845,2.0858,2.0871,2.0851,2.087,2.085,2.0832,2.0845,2.0849,2.0848,2.0846,2.0849,2.0849,2.0849,2.0849,2.0849,2.085,2.091,2.0906,2.0925,2.0926,2.0931,2.0935,2.0921,2.0925,2.0925,2.0909,2.0909,2.0885,2.08,2.0779,2.0853,2.0853,2.0852,2.0852,2.0852,2.1004,2.098,2.1009,2.1015,2.1016,2.1031,2.1006,2.1017,2.1017,2.1028,2.1001,2.0941,2.0928,2.092,2.0903,2.1005,2.1005,2.1005,2.1005,2.106,2.1052,2.1079,2.1089,2.1096,2.1078,2.1113,2.1104,2.109,2.109,2.1072,2.1048,2.1041,2.1032,2.1022,2.1005,2.1131,2.1131,2.1131,2.1117,2.111,2.1143,2.1131,2.1131,2.1131,2.1164,2.1177,2.1156,2.1136,2.1089,2.1084,2.1044,2.1032,2.101,2.0995,2.0964,0,0]}]]